星链-33964 (STARLINK-33964)

导读 | 豆包AI

STARLINK-33964是美国于2025年5月23日发射的星链卫星,星链计划是美国太空探索技术公司打造的低轨卫星互联网项目,旨在为全球提供高速低延迟宽带网络服务。该卫星入轨后,将参与星链星座组网,进一步扩大星链系统全球覆盖范围,提升星座服务的稳定性与容量。

Basic Information
目录编号:
64118
目录名称:
STARLINK-33964
国际标识:
2025-110Y
轨道中心:
EARTH
卫星名称:
星链-33964
卫星全名:
星链-33964 (STARLINK-33964)
卫星状态:
在轨 (已飞行341 天)
发射日期:
2025-05-23 UTC
国别 :
美国 (US)
星等 :
--
Orbit Information
数据来源 国际轨道数据 AOE轨道数据
星历时间 2026-04-29T20:02:38+0800
8小时前
查看轨道信息
2026-04-29T07:00:00+0800
21小时前
查看轨道信息
半长轴 6853.364km 6853.393km
偏心率 0.0001044 0.000146
轨道倾角 53.157° 53.159°
近地点辐角 79.152° 59.292°
升交点赤经 150.629° 153.157°
平近点角 280.960° 185.202°
近地点 474.511km 474.255km
远地点 475.943km 476.257km
周期 94.106分钟 94.106分钟
每日圈数 15.301962 15.301863
Detailed Information
固有亮度:
5
最大亮度:
2.5
卫星平台:
Starlink V1.0
覆盖范围:
全球
运营商:
太空探索技术公司
运营商所在国:
美国
制造商(研发单位):
太空探索技术公司
制造商所在国:
美国
使用方式:
暂无
Satellite Introduction
Starlink 计划是 SpaceX 推出的全球卫星互联网项目,通过发射低轨道卫星,为全球尤其是偏远地区提供高速、低延迟的互联网服务。自 2019 年起,Starlink 已部署数千颗卫星,旨在缩小全球数字鸿沟,推动互联网普及。该项目还为军事、航空等行业提供通信支持,带来广泛经济效益。
2D Orbit Map
3D Orbit Map
Orbit Altitude Analysis Chart
Orbit Inclination Analysis Chart
Orbit Comprehensive Analysis Chart
View Comprehensive Chart